TimeCST,TemperatureF,Dew PointF,Humidity,Sea Level PressureIn,VisibilityMPH,Wind Direction,Wind SpeedMPH,Gust SpeedMPH,PrecipitationIn,Events,Conditions,WindDirDegrees,DateUTC
12:53 AM,42.1,33.1,70,30.17,8.0,WNW,5.8,-,N/A,,Clear,300,2012-11-07 06:53:00
1:53 AM,43.0,34.0,71,30.16,10.0,NNW,8.1,-,N/A,,Clear,340,2012-11-07 07:53:00
2:53 AM,39.9,32.0,73,30.17,6.0,WNW,5.8,-,N/A,,Haze,290,2012-11-07 08:53:00
3:53 AM,39.9,32.0,73,30.16,10.0,NNW,5.8,-,N/A,,Clear,330,2012-11-07 09:53:00
4:53 AM,42.1,33.1,70,30.16,10.0,North,8.1,-,N/A,,Clear,350,2012-11-07 10:53:00
5:53 AM,41.0,34.0,76,30.18,10.0,Calm,Calm,-,N/A,,Clear,0,2012-11-07 11:53:00
6:53 AM,41.0,34.0,76,30.19,10.0,East,5.8,-,N/A,,Clear,80,2012-11-07 12:53:00
7:53 AM,44.1,34.0,68,30.22,10.0,ENE,3.5,-,N/A,,Clear,60,2012-11-07 13:53:00
8:53 AM,53.1,39.0,59,30.21,10.0,East,3.5,-,N/A,,Clear,100,2012-11-07 14:53:00
9:53 AM,63.0,36.0,37,30.19,10.0,SSE,5.8,-,N/A,,Clear,150,2012-11-07 15:53:00
10:53 AM,66.9,30.9,26,30.17,10.0,South,11.5,-,N/A,,Clear,190,2012-11-07 16:53:00
11:53 AM,69.1,30.9,24,30.14,9.0,SSW,15.0,-,N/A,,Clear,200,2012-11-07 17:53:00
12:53 PM,71.1,30.0,22,30.09,8.0,SSW,12.7,-,N/A,,Clear,200,2012-11-07 18:53:00
1:53 PM,73.0,30.9,21,30.06,5.0,South,15.0,20.7,N/A,,Haze,190,2012-11-07 19:53:00
2:53 PM,73.9,32.0,21,30.04,6.0,South,11.5,-,N/A,,Haze,170,2012-11-07 20:53:00
3:53 PM,73.9,32.0,21,30.03,7.0,South,15.0,-,N/A,,Clear,170,2012-11-07 21:53:00
4:53 PM,71.1,32.0,24,30.02,7.0,South,16.1,-,N/A,,Clear,170,2012-11-07 22:53:00
5:53 PM,64.0,32.0,30,30.03,10.0,SSE,11.5,-,N/A,,Clear,150,2012-11-07 23:53:00
6:53 PM,60.1,33.1,36,30.03,10.0,SE,10.4,-,N/A,,Clear,140,2012-11-08 00:53:00
7:53 PM,53.1,33.1,47,30.04,10.0,SE,9.2,-,N/A,,Clear,140,2012-11-08 01:53:00
8:53 PM,57.0,34.0,42,30.02,10.0,SSE,11.5,-,N/A,,Clear,160,2012-11-08 02:53:00
9:53 PM,60.1,34.0,38,30.01,10.0,SSE,15.0,-,N/A,,Clear,160,2012-11-08 03:53:00
10:53 PM,60.1,35.1,39,29.99,10.0,South,21.9,-,N/A,,Clear,170,2012-11-08 04:53:00
11:53 PM,59.0,35.1,41,29.97,10.0,South,21.9,28.8,N/A,,Clear,170,2012-11-08 05:53:00